Left ArrowRight Arrow

Hourly Observations for June 16, 2024

Temp ( °F °C ) Dew Point ( °F °C ) Humidity (%) Winds ( mph kmh ) Pressure ( in mb ) Visibility ( mi km ) Precip ( " mm )
12:56 am 00:56 undefined 60 15.6 45 7.2 57 57 NW 45 72 29.50 999 N/A 0.00 0.00
1:56 am 01:56 undefined 58 14.4 44 6.7 60 60 NW 35 56 29.58 1002 N/A 0.00 0.00
2:56 am 02:56 undefined 56 13.3 42 5.6 60 60 NW 21 33 29.67 1005 N/A 0.00 0.00
3:56 am 03:56 undefined 52 11.1 40 4.4 63 63 NW 15 24 29.69 1005 N/A 0.00 0.00
4:56 am 04:56 undefined 50 10 39 3.9 66 66 WNW 13 20 29.70 1006 N/A 0.00 0.00
5:56 am 05:56 undefined 48 8.9 40 4.4 73 73 W 10 17 29.74 1007 N/A 0.00 0.00
6:56 am 06:56 undefined 54 12.2 38 3.3 54 54 WNW 16 26 29.75 1008 N/A 0.00 0.00
7:56 am 07:56 undefined 58 14.4 31 -0.6 36 36 NW 21 33 29.75 1007 N/A 0.00 0.00
8:56 am 08:56 undefined 61 16.1 30 -1.1 31 31 NW 18 30 29.76 1008 N/A 0.00 0.00
9:56 am 09:56 undefined 65 18.3 32 0 29 29 W 20 31 29.73 1007 N/A 0.00 0.00
10:56 am 10:56 undefined 67 19.4 30 -1.1 25 25 WNW 23 37 29.74 1007 N/A 0.00 0.00
11:56 am 11:56 undefined 71 21.7 27 -2.8 19 19 W 26 43 29.74 1007 N/A 0.00 0.00
12:56 pm 12:56 undefined 70 21.1 23 -5 17 17 WNW 23 37 29.73 1007 N/A 0.00 0.00
1:56 pm 13:56 undefined 71 21.7 27 -2.8 19 19 W 24 39 29.73 1007 N/A 0.00 0.00
2:56 pm 14:56 undefined 73 22.8 28 -2.2 19 19 WNW 22 35 29.74 1007 N/A 0.00 0.00
3:56 pm 15:56 undefined 72 22.2 28 -2.2 19 19 WNW 21 33 29.75 1007 N/A 0.00 0.00
4:56 pm 16:56 undefined 73 22.8 29 -1.7 19 19 W 15 24 29.75 1008 N/A 0.00 0.00
5:56 pm 17:56 undefined 72 22.2 28 -2.2 19 19 NW 13 20 29.76 1008 N/A 0.00 0.00
6:56 pm 18:56 undefined 69 20.6 29 -1.7 22 22 NNW 9 15 29.76 1008 N/A 0.00 0.00
7:56 pm 19:56 undefined 70 21.1 27 -2.8 20 20 NNW 13 20 29.76 1008 N/A 0.00 0.00
8:56 pm 20:56 undefined 63 17.2 28 -2.2 26 26 N 12 19 29.78 1008 N/A 0.00 0.00
9:56 pm 21:56 undefined 58 14.4 27 -2.8 30 30 NNE 10 17 29.79 1009 N/A 0.00 0.00
10:56 pm 22:56 undefined 54 12.2 28 -2.2 37 37 NNE 12 19 29.80 1009 N/A 0.00 0.00
11:56 pm 23:56 undefined 54 12.2 30 -1.1 40 40 NNE 12 19 29.75 1008 N/A 0.00 0.00

Powered by Vaisala Xweather